Location: Cahas Mountain Overlook
(37.0833°N, 80.1000°W)
Time: 00:51:24
(UTC-05:00)

Tiros 1 despin weight - Visible Passes

Search period start: 29 November 2023 00:00
Search period end: 09 December 2023 00:00
Orbit: 583 x 628 km, 48.2° (Epoch: 28 November)

Date Brightness Start Highest point End Pass type
(mag) Time Alt. Az. Time Alt. Az. Time Alt. Az.
29 Nov ? 19:19:03 10° SSW 19:21:11 26° SSW 19:21:11 26° SSW visible
30 Nov ? 17:53:00 10° SSE 17:54:44 12° SE 17:56:28 10° ESE visible
30 Nov ? 19:31:04 10° SW 19:33:27 32° SW 19:33:27 32° SW visible
01 Dec ? 18:03:15 10° S 18:06:46 24° SE 18:08:48 17° E visible
01 Dec ? 19:43:29 10° WSW 19:45:37 27° W 19:45:37 27° W visible
02 Dec ? 18:14:44 10° SSW 18:18:54 46° SE 18:20:54 26° E visible
02 Dec ? 19:56:12 10° W 19:57:42 19° W 19:57:42 19° W visible
03 Dec ? 18:26:47 10° SW 18:31:08 87° SE 18:32:55 35° ENE visible
03 Dec ? 20:09:07 10° WNW 20:09:43 13° WNW 20:09:43 13° WNW visible
04 Dec ? 18:39:12 10° WSW 18:43:28 54° NNW 18:44:52 37° NNE visible
05 Dec ? 18:51:55 10° W 18:55:55 34° NNW 18:56:44 32° N visible
06 Dec ? 19:04:48 10° WNW 19:08:26 25° NNW 19:08:33 25° NNW visible
07 Dec ? 17:34:49 10° WSW 17:39:04 51° NNW 17:43:19 10° NE visible
07 Dec ? 19:17:45 10° WNW 19:20:20 20° NNW 19:20:20 20° NNW visible
08 Dec ? 17:47:31 10° W 17:51:29 33° NNW 17:55:17 11° NE visible
08 Dec ? 19:30:36 10° NW 19:32:04 16° NNW 19:32:04 16° NNW visible
